www.pogodaiklimat.ru

Погода и климат >> Архив погоды >> Россия >> Амурская область >> Малиновка


ПОГОДА в Малиновке

  • Прогноз погоды в Малиновке
  • Монитор погоды в Малиновке

АРХИВ ПОГОДЫ в Малиновке

Время (UTC), дата Ветер
(напр.,м/с)
 
Видим.   Явления Облачность Т
(С)
Тd
(С)
f
(%)
Тe
(С)
Тes
(С)
Комфортность P
(гПа)
Po
(гПа)
Тmin
(С)
Tmax
(С)
R
(мм)
R24
(мм)
S
(см)
21 14.05 В 1 10 км в посл. час туман 10/0
[Ac trans Ci fib]
+5.0 +4.1 94 +4 +4 1008.3 994.1
00 15.05 В 1 12 км слаб. ливневой дождь {туман} 10/10 600 м
[Cb cap]
+8.6 +7.4 92 +8 +8 1008.2 994.3 +1.4 2
03 15.05 Ю 2 50 км {ливн. осадки} 8/4 1000 м
[Sc diur, vesp Ac trans Ci fib]
+16.2 +8.5 60 +16 +23 1006.8 993.2
06 15.05 З 3 50 км {ливн. осадки} 6/4 1000 м
[Cu med, cong Ci fib]
+19.4 +6.5 43 +20 +26 1004.3 990.9
09 15.05 С 1 50 км 8/4 1000 м
[Sc diur, vesp Ac trans Ci fib]
+19.5 +5.2 39 +21 +22 комфорт 1002.2 988.8
12 15.05 В 2 50 км 10/3 1000 м
[Sc diur, vesp Ac trans Ci fib]
+16.2 +6.0 51 +16 +16 1001.8 988.3 +21.2 0.0
15 15.05 В 2 50 км 10/0
[Ac trans Ci fib]
+14.5 +5.0 53 +14 +14 999.9 986.3
18 15.05 В 1 50 км в посл. час гроза {ливн. осадки} 10/6 600 м
[Cb cap Ac trans Ci fib]
+13.0 +7.1 67 +13 +13 998.3 984.6
21 15.05 Ю 5-10
{11}
4000 м гроза, ливневой дождь 10/10 600 м
[Cb cap]
+12.5 +9.3 81 +10 +10 999.6 985.9
00 16.05 ЮВ 2
{11}
50 км {гроза} 10/10 600 м
[Cb cap]
+14.0 +10.0 77 +14 +14 997.2 983.7 +11.8 5
03 16.05 ЮВ 3 50 км в посл. час гроза {ливн. осадки} 10/10 600 м
[Cb cap]
+16.6 +10.5 67 +16 +16 995.5 982.1
06 16.05 Ю 2
{20}
10 км {гроза, ливн. осадки} 10/10 600 м
[Cb cap]
+14.6 +6.8 59 +14 +14 996.0 982.5
09 16.05 ЮЗ 2 50 км 10/10 600 м
[Cb cap]
+14.4 +4.4 51 +14 +14 997.8 984.2
12 16.05 Ю 4 50 км {ливн. осадки} 10/8 600 м
[Cb cap Ci fib]
+14.7 +0.7 38 +14 +14 999.2 985.6 +16.7 2
15 16.05 Ю 2
{10}
50 км 10/4 1000 м
[Sc diur, vesp Ac trans Ci fib]
+12.4 +1.6 48 +12 +12 1000.1 986.4
18 16.05 В 1 н/о н/о +4.9 +2.5 84 +4 +4 999.4 985.4
21 16.05 штиль 0 50 км 10/0
[Ci fib]
+5.4 +2.6 82 +5 +6 999.1 985.0
00 17.05 ЮЗ 5 50 км 4/0
[Ac trans Ci fib]
+15.8 +1.6 38 +15 +19 999.7 986.1 +1.8
03 17.05 З 8-15
{16}
50 км 3/3 1000 м
[Cu hum]
+18.2 +1.3 32 +17 +19 1001.3 987.8
06 17.05 З 8-13
{16}
50 км 1/0
[Ci fib]
+22.3 -3.6 17 +21 +23 комфорт 1001.0 987.8
09 17.05 ЮЗ 3
{14}
50 км 3/0
[Ac lent Ci fib]
+22.8 -2.7 18 +21 +23 комфорт 1000.9 987.7
12 17.05 ЮВ 2 50 км 10/3 600 м
[Cb cap Ac trans Ci fib]
+16.2 -1.3 30 +16 +16 1000.8 987.3 +23.1
15 17.05 Ю 2
{13}
14 км слаб. ливневой дождь, в посл. час гроза 10/10 600 м
[Cb cap]
+13.4 +5.7 60 +13 +13 1001.4 987.8
18 17.05 штиль 0
{12}
50 км {гроза, ливн. осадки} 10/10 600 м
[Cb cap]
+9.6 +5.7 77 +9 +9 1003.3 989.5
21 17.05 Ю 2 50 км 10/10 600 м
[Cb cap]
+8.4 +6.3 87 +6 +6 1005.4 991.5
00 18.05 Ю 3 50 км 8/6 600 м
[Cb cap Ci fib]
+12.3 +5.8 64 +11 +14 1005.6 991.9 +6.4 0.5
03 18.05 Ю 4 50 км 9/3 600 м
[Cb cap Ac trans Ci fib]
+13.3 +3.7 52 +12 +16 1006.0 992.3
06 18.05 ЮЗ 6-10
{12}
50 км 8/0
[Ac trans Ci fib]
+17.7 -0.3 30 +17 +20 1004.5 991.0
09 18.05 Ю 4
{10}
50 км 8/6 1000 м
[Cu hum Ci fib]
+17.5 +0.3 31 +17 +18 1003.5 990.0
12 18.05 Ю 3 50 км 4/3 600 м
[Cb cap Ac trans Ci fib]
+12.5 +3.8 55 +11 +11 1004.7 991.0 +19.0
15 18.05 ЮЗ 3 50 км 3/0
[Ci fib]
+10.0 +3.9 66 +8 +8 1007.7 993.8
18 18.05 ЮВ 1 50 км 10/0
[Ac trans Ci]
+6.2 +3.9 85 +5 +5 1009.2 995.1
21 18.05 В 1 50 км 10/0
[Ac trans Ci]
+4.6 +3.3 91 +3 +4 1010.4 996.2
00 19.05 Ю 2 50 км 10/0
[Ac trans Cs]
+13.0 +6.7 66 +12 +19 1010.2 996.4 +3.6
12 19.05 штиль 0 15 км слаб. ливневой дождь 10/10 600 м
[Cb cap]
+11.3 +7.1 75 +11 +11 1005.9 992.1 +17.5 0.1
15 19.05 СВ 2 8000 м {ливн. осадки} 10/10 600 м
[Cb cap]
+9.9 +8.0 88 +8 +8 1002.2 988.4
18 19.05 СВ 3 12 км слаб. ливневой дождь 10/10 600 м
[Cb cap]
+9.9 +7.9 87 +8 +8 996.5 982.8
00 20.05 В 2 <100 м слаб. ливневой дождь 10/10 600 м
[Cb cap]
+10.4 +9.1 92 +9 +9 990.3 976.7 +9.7 18
12 20.05 ЮВ 1 50 км {ливн. осадки} 8/4 1000 м
[Sc diur, vesp Ac trans]
+8.2 +7.1 93 +7 +7 987.9 974.2 +12.8 18
15 20.05 штиль 0 8000 м слаб. ливневой дождь 9/8 600 м
[Cb cap Ac trans]
+7.4 +6.4 93 +6 +6 987.8 974.1
00 21.05 В 1 50 км в посл. час ливневой дождь 9/9 600 м
[Cb cap]
+9.8 +7.8 87 +9 +10 988.1 974.5 +6.6 3
12 21.05 Ю 2 50 км {ливн. осадки} 9/9 600 м
[Cb cap]
+10.2 +6.5 78 +9 +9 992.2 978.5 +16.5 0.0

 

Местоположение метеостанции Малиновка (Амурская область, Россия): широта 49.78 долгота 129.90 высота над уровнем моря 116 м.

В архиве по умолчанию представлена погода в Малиновке за последнюю неделю. Архивные данные за месяц целиком и за предыдущие месяцы, начиная с января 2011 года, Вы можете получить, выбрав интересующий диапазон дат из раскрывающегося списка и нажав кнопку "Ввод!".


*Определитесь, кто Вы:
робот инопланетянин человек

Внимание! Время в таблицах - всемирное. Для получения местного времени необходимо прибавить поправку, которая равна 9 ч.

Смотрите также архив погоды в соседних городах и на ближайших метеорологических станциях:

Погода в Архаре (Амурская область, Россия) (41 км)
Погода в Завитае (Амурская область, Россия) (52 км)
Погода в Екатеринославке (Амурская область, Россия) (92 км)
Погода в Поярково (Амурская область, Россия) (95 км)
Погода в Сектагли (Хабаровский край, Россия) (107 км)
Погода в Облучье (Еврейская автономная область, Россия) (118 км)
Погода в Братолюбовке (Амурская область, Россия) (119 км)
Погода в Константиновке (Амурская область, Россия) (145 км)
Погода в Сутуре (Хабаровский край, Россия) (161 км)
Погода в Белогорске (Амурская область, Россия) (166 км)

Пояснения к столбцам:

Ветер - указаны скорость ветра в м/с - средняя за 10 мин, порывы в срок и между сроками (в фигурных скобках) и направление, откуда дует ветер: С - северный, СВ - северо-восточный, В - восточный, ЮВ - юго-восточный, Ю - южный, ЮЗ - юго-западный, З - западный, СЗ - северо-западный.
Видимость - горизонтальная дальность видимости в метрах или километрах. При видимости от 1 до 10 км при отсутствии осадков обычно наблюдается дымка, при ухудшении видимости до 1 км и менее - туман. В сухую погоду видимость может ухудшаться дымом, пылью или мглою.
Явления - указаны атмосферные явления, наблюдавшиеся в срок или в последний час перед сроком; фигурными скобками обозначены явления, наблюдавшиеся между сроками (за 1-3 часа до срока); квадратными скобками обозначены град или гололедные отложения с указанием их диаметра в мм.
Облачность - указаны через наклонную черту общая и нижняя облачность в баллах и высота нижней границы облаков в метрах; квадратными скобками обозначены формы облаков: Ci - перистые, Cs - перисто-слоистые, Cc - перисто-кучевые, Ac - высококучевые, As - высокослоистые, Sc - слоисто-кучевые, Ns - слоисто-дождевые, Cu - кучевые, Cb - кучево-дождевые. Подробнее классификацию облаков см. в Атласе облаков (PDF).
T - Температура воздуха - температура, измеренная на высоте 2 м над землей.
Td - Температура точки росы - температура, при понижении до которой содержащийся в воздухе водяной пар достигнет насыщения.
f - Относительная влажность воздуха - влажноcть воздуха, измеренная на высоте 2 м над землей.
Te - Эффективная температура - температура, которую ощущает одетый по сезону человек в тени. Характеристика душности погоды. При расчете учитывается влияние влажности воздуха и скорости ветра на теплоощущения человека.
Tes - Эффективная температура на солнце - температура, которую ощущает человек, с поправкой на солнечный нагрев. Характеристика знойности погоды. Зависит от высоты солнца над горизонтом, облачности и скорости ветра. Ночью, в пасмурную погоду, а также при ветре 12 м/с и более поправка равна нулю.
P - Атмосферное давление - приведенное к уровню моря атмосферное давление.
Po - Атмосферное давление - измеренное на уровне метеостанции атмосферное давление.
Tmin - Минимальная температура - минимум температуры воздуха на высоте 2 м над землей.
Tmax - Максимальная температура - максимум температуры воздуха на высоте 2 м над землей.
R - Количество осадков - Количество выпавших осадков за период времени, мм. При наведении курсора мыши на число - период времени, за который выпало указанное количество осадков.
R24 - Количество осадков - Количество выпавших осадков за 24 часа, мм.
S - Снежный покров - Высота снежного покрова, см. При наведении курсора мыши на число - состояние снежного покрова и степень покрытия местности в баллах.